Overview Statistics Trail Chart Weather Telemetry Raw packets
 

This is the latest recevied weather packets stored in our database for station/object SV9TNF-52. If no packets are shown the sender has not sent any weather packets the latest 10 day(s).

<< 9 10 11 12 13 14 15 >>
Time Temp. Humidity Pressure Rain* Wind** Luminosity Snow
1788592056 28.33° C 57% 1021.7 hPa 0 mm 8.94 m/s, 0° - -
1788591756 28.33° C 54% 1021.7 hPa 0 mm 17.88 m/s, 355° - -
1788591456 28.33° C 54% 1021.7 hPa 0 mm 8.05 m/s, 33° - -
1788591156 28.33° C 56% 1021.7 hPa 0 mm 13.41 m/s, 129° - -
1788590856 28.33° C 58% 1021.7 hPa 0 mm 10.73 m/s, 318° - -
1788590556 28.33° C 58% 1021.7 hPa 0 mm 16.54 m/s, 22° - -
1788590256 28.33° C 51% 1021.7 hPa 0 mm 15.2 m/s, 20° - -
1788589956 28.33° C 53% 1021.7 hPa 0 mm 19.67 m/s, 7° - -
1788589655 28.33° C 54% 1021.7 hPa 0 mm 17.43 m/s, 4° - -
1788589356 28.33° C 56% 1021.7 hPa 0 mm 8.49 m/s, 345° - -
1788589056 27.78° C 54% 1021.7 hPa 0 mm 11.18 m/s, 57° - -
1788588756 28.33° C 57% 1021.7 hPa 0 mm 13.41 m/s, 37° - -
1788588455 27.78° C 60% 1021.7 hPa 0 mm 14.75 m/s, 26° - -
1788588155 27.78° C 59% 1021.7 hPa 0 mm 17.88 m/s, 21° - -
1788587855 27.78° C 59% 1021 hPa 0 mm 20.12 m/s, 344° - -
1788587555 27.78° C 60% 1021 hPa 0 mm 8.05 m/s, 45° - -
1788587255 27.78° C 60% 1021 hPa 0 mm 11.62 m/s, 342° - -
1788586955 27.78° C 61% 1021 hPa 0 mm 9.39 m/s, 314° - -
1788586655 27.78° C 60% 1021 hPa 0 mm 9.83 m/s, 320° - -
1788586354 27.78° C 60% 1020.7 hPa 0 mm 13.41 m/s, 46° - -
1788586054 27.78° C 60% 1020.7 hPa 0 mm 12.07 m/s, 351° - -
1788585754 27.78° C 61% 1020.7 hPa 0 mm 9.83 m/s, 146° - -
1788585454 27.78° C 59% 1020.7 hPa 0 mm 14.75 m/s, 357° - -
1788585154 27.78° C 61% 1020.7 hPa 0 mm 7.15 m/s, 358° - -
1788584854 27.78° C 60% 1020.7 hPa 0 mm 9.83 m/s, 37° - -

* Rain latest hour (hover to see other rain measurements)
** Current wind speed in m/s (hover to see current wind gust speed)